• In Italy
  • List of Countries
  • For 7 days
  • Water Temperature
  • Satellite Maps
  • Weather Map
  • Weather Widgets
  • user-avatar
    Login

    Hourly Weather Arda

    Today, 24 October, Wednesday

    Time Temperature Precipitation Wind Pressure Humidity
    00:00 +3°C° 0 mm 2 mps 742 mmHg 95%
    01:00 +3°C° 0 mm 2 mps 742 mmHg 94%
    02:00 +3°C° 0 mm 2 mps 742 mmHg 94%
    03:00 +3°C° 0 mm 2 mps 742 mmHg 94%
    04:00 +3°C° 0 mm 2 mps 742 mmHg 94%
    05:00 +2°C° 0 mm 3 mps 741 mmHg 94%
    06:00 +2°C° 0 mm 3 mps 741 mmHg 94%
    07:00 +3°C° 0 mm 3 mps 741 mmHg 90%
    08:00 +3°C° 0 mm 4 mps 741 mmHg 87%
    09:00 +4°C° 0 mm 4 mps 741 mmHg 83%
    10:00 +5°C° 0 mm 4 mps 741 mmHg 79%
    11:00 +6°C° 0 mm 5 mps 741 mmHg 74%
    12:00 +6°C° 0 mm 5 mps 740 mmHg 70%
    13:00 +6°C° 0 mm 4 mps 740 mmHg 70%
    14:00 +6°C° 0 mm 4 mps 740 mmHg 70%
    15:00 +8°C° 0 mm 3 mps 740 mmHg 70%
    16:00 +7°C° 0 mm 3 mps 740 mmHg 74%
    17:00 +5°C° 0 mm 3 mps 740 mmHg 77%
    18:00 +5°C° 0 mm 3 mps 740 mmHg 81%
    19:00 +5°C° 0.4 mm 4 mps 739 mmHg 81%
    20:00 +5°C° 0.4 mm 4 mps 739 mmHg 81%
    21:00 +6°C° 0.4 mm 5 mps 739 mmHg 81%
    22:00 +6°C° 0.6 mm 5 mps 738 mmHg 81%
    23:00 +5°C° 0.6 mm 6 mps 737 mmHg 82%

    Tomorrow, 25 October, Thursday

    Time Temperature Precipitation Wind Pressure Humidity
    00:00 +7°C° 0.6 mm 6 mps 736 mmHg 83%
    01:00 +7°C° 1 mm 6 mps 736 mmHg 84%
    02:00 +7°C° 1 mm 6 mps 736 mmHg 86%
    03:00 +8°C° 1 mm 6 mps 735 mmHg 87%
    04:00 +8°C° 0.2 mm 5 mps 735 mmHg 89%
    05:00 +8°C° 0.2 mm 5 mps 735 mmHg 90%
    06:00 +8°C° 0.2 mm 4 mps 735 mmHg 92%
    07:00 +8°C° 0.3 mm 4 mps 735 mmHg 93%
    08:00 +8°C° 0.3 mm 4 mps 734 mmHg 93%
    09:00 +8°C° 0.3 mm 4 mps 734 mmHg 93%
    10:00 +8°C° 0.6 mm 4 mps 734 mmHg 92%
    11:00 +10°C° 0.6 mm 4 mps 733 mmHg 91%
    12:00 +10°C° 0.6 mm 4 mps 733 mmHg 90%
    13:00 +10°C° 0.3 mm 4 mps 732 mmHg 90%
    14:00 +10°C° 0.3 mm 4 mps 732 mmHg 91%
    15:00 +11°C° 0.3 mm 4 mps 731 mmHg 91%
    16:00 +10°C° 0.3 mm 5 mps 731 mmHg 89%
    17:00 +10°C° 0.3 mm 5 mps 731 mmHg 88%
    18:00 +10°C° 0.3 mm 6 mps 730 mmHg 87%
    19:00 +9°C° 0.9 mm 6 mps 730 mmHg 84%
    20:00 +8°C° 0.9 mm 6 mps 730 mmHg 82%
    21:00 +6°C° 0.9 mm 7 mps 730 mmHg 80%
    22:00 +7°C° 0 mm 6 mps 731 mmHg 80%
    23:00 +5°C° 0 mm 6 mps 731 mmHg 79%

    Day after tomorrow, 26 October, Friday

    Time Temperature Precipitation Wind Pressure Humidity
    00:00 +5°C° 0 mm 5 mps 731 mmHg 79%
    01:00 +5°C° 0 mm 5 mps 732 mmHg 79%
    02:00 +4°C° 0 mm 6 mps 732 mmHg 79%
    03:00 +4°C° 0 mm 6 mps 732 mmHg 78%
    04:00 +4°C° 0 mm 6 mps 733 mmHg 78%
    05:00 +4°C° 0 mm 6 mps 733 mmHg 78%
    06:00 +3°C° 0 mm 6 mps 733 mmHg 78%
    07:00 +3°C° 0 mm 6 mps 734 mmHg 76%
    08:00 +3°C° 0 mm 6 mps 734 mmHg 74%
    09:00 +2°C° 0 mm 6 mps 735 mmHg 72%
    10:00 +2°C° 0.1 mm 6 mps 736 mmHg 71%
    11:00 +2°C° 0.1 mm 6 mps 737 mmHg 69%
    12:00 +2°C° 0.1 mm 6 mps 737 mmHg 68%
    13:00 +2°C° 0 mm 6 mps 738 mmHg 67%
    14:00 +2°C° 0 mm 6 mps 738 mmHg 67%
    15:00 +2°C° 0 mm 6 mps 739 mmHg 66%
    16:00 +2°C° 0 mm 6 mps 739 mmHg 67%
    17:00 +2°C° 0 mm 5 mps 740 mmHg 68%
    18:00 +2°C° 0 mm 5 mps 740 mmHg 69%
    19:00 +2°C° 0 mm 5 mps 741 mmHg 69%
    20:00 +2°C° 0 mm 5 mps 741 mmHg 69%
    21:00 +3°C° 0 mm 4 mps 741 mmHg 69%
    22:00 +2°C° 0 mm 5 mps 741 mmHg 72%
    23:00 +1°C° 0 mm 5 mps 741 mmHg 74%

    27 October, Saturday

    Time Temperature Precipitation Wind Pressure Humidity
    00:00 +1°C° 0 mm 5 mps 742 mmHg 77%
    01:00 +1°C° 0 mm 5 mps 742 mmHg 78%
    02:00 +1°C° 0 mm 5 mps 742 mmHg 80%
    03:00 0°C° 0 mm 5 mps 742 mmHg 81%
    04:00 0°C° 0 mm 5 mps 742 mmHg 82%
    05:00 0°C° 0 mm 5 mps 742 mmHg 82%
    06:00 0°C° 0 mm 5 mps 743 mmHg 83%
    07:00 +1°C° 0 mm 5 mps 743 mmHg 82%
    08:00 +1°C° 0 mm 5 mps 743 mmHg 80%
    09:00 +1°C° 0 mm 5 mps 744 mmHg 79%
    10:00 +2°C° 0 mm 5 mps 744 mmHg 75%
    11:00 +2°C° 0 mm 5 mps 745 mmHg 70%
    12:00 +3°C° 0 mm 5 mps 745 mmHg 66%
    13:00 +3°C° 0 mm 5 mps 745 mmHg 66%
    14:00 +3°C° 0 mm 5 mps 745 mmHg 67%
    15:00 +4°C° 0 mm 4 mps 745 mmHg 67%
    16:00 +3°C° 0 mm 4 mps 745 mmHg 71%
    17:00 +3°C° 0 mm 4 mps 745 mmHg 74%
    18:00 +1°C° 0 mm 4 mps 744 mmHg 78%
    19:00 +3°C° 0.2 mm 4 mps 744 mmHg 77%
    20:00 +2°C° 0.2 mm 5 mps 743 mmHg 75%
    21:00 +2°C° 0.2 mm 5 mps 742 mmHg 74%
    22:00 +2°C° 1.1 mm 6 mps 741 mmHg 77%
    23:00 +3°C° 1.1 mm 6 mps 739 mmHg 80%

    28 October, Sunday

    Time Temperature Precipitation Wind Pressure Humidity
    00:00 +3°C° 1.1 mm 6 mps 738 mmHg 83%
    01:00 +3°C° 0.7 mm 6 mps 738 mmHg 83%
    02:00 +4°C° 0.7 mm 6 mps 737 mmHg 83%
    03:00 +4°C° 0.7 mm 6 mps 737 mmHg 84%
    04:00 +4°C° 0.2 mm 6 mps 737 mmHg 83%
    05:00 +3°C° 0.2 mm 6 mps 737 mmHg 83%
    06:00 +3°C° 0.2 mm 6 mps 737 mmHg 82%
    07:00 +3°C° 0.4 mm 6 mps 737 mmHg 82%
    08:00 +3°C° 0.4 mm 6 mps 738 mmHg 81%
    09:00 +3°C° 0.4 mm 6 mps 738 mmHg 81%
    10:00 +3°C° 0.2 mm 6 mps 740 mmHg 81%
    11:00 +3°C° 0.2 mm 7 mps 741 mmHg 81%
    12:00 +3°C° 0.2 mm 7 mps 742 mmHg 81%
    13:00 +3°C° 0.2 mm 7 mps 744 mmHg 79%
    14:00 +2°C° 0.2 mm 7 mps 746 mmHg 77%
    15:00 +2°C° 0.2 mm 7 mps 747 mmHg 74%
    16:00 +1°C° 0 mm 6 mps 749 mmHg 75%
    17:00 +1°C° 0 mm 6 mps 750 mmHg 77%
    18:00 0°C° 0 mm 5 mps 751 mmHg 78%
    19:00 0°C° 0 mm 5 mps 752 mmHg 78%
    20:00 0°C° 0 mm 5 mps 753 mmHg 78%
    21:00 0°C° 0 mm 5 mps 754 mmHg 78%
    22:00 0°C° 0.1 mm 5 mps 755 mmHg 78%
    23:00 0°C° 0.1 mm 4 mps 755 mmHg 79%

    29 October, Monday

    Time Temperature Precipitation Wind Pressure Humidity
    00:00 0°C° 0.1 mm 4 mps 756 mmHg 79%
    01:00 -1°C° 0 mm 4 mps 757 mmHg 81%
    02:00 -1°C° 0 mm 4 mps 758 mmHg 84%
    03:00 -2°C° 0 mm 4 mps 758 mmHg 87%
    04:00 -2°C° 0 mm 4 mps 759 mmHg 88%
    05:00 -2°C° 0 mm 3 mps 759 mmHg 90%
    06:00 -2°C° 0 mm 3 mps 759 mmHg 91%
    07:00 -2°C° 0 mm 3 mps 760 mmHg 88%
    08:00 -1°C° 0 mm 3 mps 760 mmHg 86%
    09:00 -1°C° 0 mm 3 mps 761 mmHg 83%
    10:00 0°C° 0 mm 3 mps 761 mmHg 79%
    11:00 0°C° 0 mm 3 mps 761 mmHg 76%
    12:00 +1°C° 0 mm 3 mps 762 mmHg 73%
    13:00 +1°C° 0 mm 3 mps 762 mmHg 72%
    14:00 +2°C° 0 mm 2 mps 762 mmHg 72%
    15:00 +2°C° 0 mm 2 mps 762 mmHg 72%
    16:00 +1°C° 0 mm 2 mps 762 mmHg 76%
    17:00 +2°C° 0 mm 1 mps 762 mmHg 79%
    18:00 +1°C° 0 mm 1 mps 762 mmHg 83%
    19:00 +1°C° 0 mm 1 mps 763 mmHg 83%
    20:00 +1°C° 0 mm 1 mps 763 mmHg 83%
    21:00 0°C° 0 mm 0 mps 763 mmHg 84%
    22:00 0°C° 0 mm 0 mps 763 mmHg 84%
    23:00 0°C° 0 mm 0 mps 763 mmHg 84%

    30 October, Tuesday

    Time Temperature Precipitation Wind Pressure Humidity
    00:00 0°C° 0 mm 0 mps 763 mmHg 84%
    01:00 +1°C° 0.1 mm 1 mps 763 mmHg 86%
    02:00 +1°C° 0.1 mm 1 mps 763 mmHg 87%
    03:00 +1°C° 0.1 mm 1 mps 762 mmHg 89%
    04:00 -1°C° 0.4 mm 2 mps 762 mmHg 90%
    05:00 -1°C° 0.4 mm 2 mps 762 mmHg 92%
    06:00 -2°C° 0.4 mm 3 mps 761 mmHg 93%
    07:00 -2°C° 0.6 mm 4 mps 761 mmHg 93%
    08:00 -2°C° 0.6 mm 4 mps 761 mmHg 92%
    09:00 -2°C° 0.6 mm 5 mps 760 mmHg 91%
    10:00 -2°C° 0.8 mm 5 mps 760 mmHg 90%
    11:00 -3°C° 0.8 mm 6 mps 759 mmHg 90%
    12:00 -3°C° 0.8 mm 6 mps 759 mmHg 89%
    13:00 -3°C° 0.5 mm 6 mps 759 mmHg 88%
    14:00 -3°C° 0.5 mm 6 mps 759 mmHg 88%
    15:00 -3°C° 0.5 mm 6 mps 758 mmHg 87%
    16:00 -3°C° 0.4 mm 6 mps 759 mmHg 87%
    17:00 -4°C° 0.4 mm 6 mps 759 mmHg 87%
    18:00 -4°C° 0.4 mm 6 mps 759 mmHg 87%
    19:00 -4°C° 0.1 mm 6 mps 759 mmHg 86%
    20:00 -4°C° 0.1 mm 6 mps 759 mmHg 85%
    21:00 -4°C° 0.1 mm 6 mps 759 mmHg 85%
    22:00 -5°C° 0.1 mm 6 mps 760 mmHg 84%
    23:00 -5°C° 0.1 mm 5 mps 760 mmHg 84%
    Show more